MPEC 2001-T06: S/2000 S 1, S/2000 S 2, S/2000 S 4, S/2000 S 6, S/2000 S 12

The following Minor Planet Electronic Circular may be linked-to from your own Web pages, but must not otherwise be redistributed electronically.


Read MPEC 2001-T05 Read MPEC 2001-T07


M.P.E.C. 2001-T06                                Issued 2001 Oct. 6, 13:42 UT

     The Minor Planet Electronic Circulars contain information on unusual
         minor planets and routine data on comets.  They are published
   on behalf of Commission 20 of the International Astronomical Union by the
          Minor Planet Center, Smithsonian Astrophysical Observatory,
                          Cambridge, MA 02138, U.S.A.

             Prepared using the Tamkin Foundation Computer Network

                              MPC@CFA.HARVARD.EDU
          URL http://cfa-www.harvard.edu/iau/mpc.html  ISSN 1523-6714

          S/2000 S 1, S/2000 S 2, S/2000 S 4, S/2000 S 6, S/2000 S 12

                 Revision to MPEC 2000-Y15, 2000-Y16, 2000-Y33

Observations:
    SK00S010  C2001 08 21.13448 04 51 49.17 +20 51 29.4          22.3 R      493
    SK00S010  C2001 08 21.15968 04 51 49.52 +20 51 30.7          22.3 R      493
    SK00S010  C2001 09 20.51157 04 56 11.70 +20 55 15.4                      675
    SK00S020  C2001 08 20.12824 04 50 25.54 +21 17 39.0                      493
    SK00S020  C2001 08 20.15844 04 50 26.03 +21 17 39.8                      493
    SK00S020  C2001 08 24.54571 04 51 38.58 +21 19 01.3          21.7 R      568
    SK00S020  C2001 08 24.56580 04 51 38.88 +21 19 01.5          21.6 R      568
    SK00S020  C2001 08 24.58853 04 51 39.25 +21 19 02.0          21.9 R      568
    SK00S020  C2001 09 19.39932 04 56 05.15 +21 21 24.1                      675
    SK00S020  C2001 09 19.44142 04 56 05.35 +21 21 23.8          21   R      675
    SK00S020  C2001 09 19.47078 04 56 05.47 +21 21 23.7          21   R      675
    SK00S040  C2001 08 22.13328 04 54 04.51 +21 27 35.9                      493
    SK00S040  C2001 08 22.14098 04 54 04.63 +21 27 36.7                      493
    SK00S040  C2001 08 22.14878 04 54 04.74 +21 27 36.8                      493
    SK00S040  C2001 08 22.15678 04 54 04.90 +21 27 37.1                      493
    SK00S040  C2001 09 19.39031 04 58 54.84 +21 34 16.6                      675
    SK00S040  C2001 09 19.42317 04 58 54.96 +21 34 16.7                      675
    SK00S060  C2001 08 24.53888 04 49 38.89 +20 18 40.3          23.1 R      568
    SK00S060  C2001 08 24.55885 04 49 39.19 +20 18 40.5          23.1 R      568
    SK00S060  C2001 08 24.57891 04 49 39.48 +20 18 40.9          23.2 R      568
    SK00S060  C2001 09 18.42311 04 53 52.13 +20 18 24.5          23.0 R      675
    SK00S060  C2001 09 18.44645 04 53 52.23 +20 18 24.2          23.1 R      675
    SK00S060  C2001 09 18.47037 04 53 52.33 +20 18 23.9          22.8 R      675
    SK00S060  C2001 09 19.37262 04 53 56.58 +20 18 14.7                      675
    SK00S120  C2001 08 24.55224 04 48 05.66 +20 35 14.2                      568
    SK00S120  C2001 08 24.57220 04 48 05.94 +20 35 14.4                      568
    SK00S120  C2001 09 19.40717 04 51 40.44 +20 37 20.8          23.8 R      675
    SK00S120  C2001 09 19.44952 04 51 40.59 +20 37 21.5          23.7 R      675
    SK00S120  C2001 09 19.47738 04 51 40.67 +20 37 21.5          24.5 R      675

Observer details:
493 Calar Alto.  Observers G. Bernabei, A. Campo Bagatin, J.-M. Petit.
    Measurer J.-M. Petit.  2.2-m reflector + CCD.
568 Mauna Kea.  Observer J. Kavalaars.  Measurer J.-M. Petit.  3.6-m
    Canada-France-Hawaii Telescope + CCD.
675 Palomar.  Observers P. Nicholson, C. Dumas, A. Harris.  Measurer
    B. Gladman.  5-m Hale reflector + CCD.

Orbital elements:
S/2000 S 1
Epoch 2001 Oct. 18.0 TT = JDT 2452200.5                 Marsden
M  43.96653              (2000.0)            P               Q
n   0.27101350     Peri.   42.43394     -0.96178900     +0.26769460
a   0.1557901      Node   207.06661     +0.20483381     +0.84277990
e   0.3746580      Incl.  172.74556     +0.18167284     +0.46697072
P   3.64           H   12.3           P/d  1328.35
Residuals in seconds of arc
K0087  809  0.0   0.0     K009O  568  0.0   0.0     K00B2  695  0.3-  0.0
K0087  809  0.2-  0.2-    K009R  693  0.1-  0.0     K00B3  695  0.3-  0.1-
K0087  809  0.1+  0.0     K009R  693  0.3+  0.0     K00B3  695  0.2-  0.1-
K009N  568  0.1+  0.1+    K009R  693  0.2+  0.2+    K018L  493  0.2+  0.6-
K009N  568  0.2+  0.1+    K009T  809  0.0   0.2+    K018L  493  0.2-  0.2+
K009N  568  0.3+  0.0     K009T  809  0.1-  0.3+    K019K  675  0.2-  1.4+
K009O  568  0.1+  0.1+    K009T  809  0.1-  0.3+
K009O  568  0.0   0.0     K00B2  695  0.2-  0.0

S/2000 S 2
Epoch 2001 Oct. 18.0 TT = JDT 2452200.5                 Marsden
M 285.44829              (2000.0)            P               Q
n   0.52565537     Peri.  241.98116     -0.56911221     +0.81281589
a   0.1001689      Node   350.02901     -0.22887340     -0.30174411
e   0.4618653      Incl.   45.86246     -0.78976468     -0.49827786
P   1.88           H   11.9           P/d   684.86
Residuals in seconds of arc
K0087  809  0.0   0.0     K00B2  695  0.0   0.2+    K012F  950  0.1+  0.2+
K0087  809  0.1-  0.0     K00B2  695  0.3-  0.3-    K012F  950  0.2+  0.1+
K0087  809  0.3-  0.1-    K00B2  695  0.2-  0.1-    K012F  950  0.2+  0.0
K009N  568  0.2+  0.1+    K00B3  695  0.0   0.3+    K018K  493  0.7+  0.4+
K009N  568  0.1+  0.1+    K00B3  695  0.1+  0.1+    K018K  493  0.3+  0.5+
K009N  568  0.2+  0.1+    K00B9  696  0.2-  0.2-    K018O  568  0.3+  0.2+
K009O  568  0.2+  0.1+    K00B9  696  0.1+  0.2-    K018O  568  0.2+  0.0
K009O  568  0.1+  0.1+    K00B9  696  0.1+  0.4-    K018O  568  0.5+  0.1+
K009O  568  0.1+  0.2+    K00B9  696  0.5+  0.4+    K019J  675  0.8-  0.2-
K00AN  675  0.2-  0.1-    K00B9  696  0.2-  0.5-    K019J  675  0.6-  0.4-
K00AN  675  0.2+  0.1-    K00BO  809  0.4-  0.0     K019J  675  0.6-  0.3-
K00AN  675  0.0   0.1-    K00BO  809  0.2-  0.0
K00B2  695  0.1+  0.2-    K00BO  809  0.4-  0.0

S/2000 S 4
Epoch 2001 Oct. 18.0 TT = JDT 2452200.5                 Marsden
M 154.77653              (2000.0)            P               Q
n   0.40004074     Peri.  285.65578     +0.77015795     -0.28445672
a   0.1201704      Node    93.78833     +0.51406928     +0.80667948
e   0.6125237      Incl.   34.90118     -0.37761025     +0.51802760
P   2.46           H   12.8           P/d   899.91
Residuals in seconds of arc
K009N  568  0.2-  0.3+    K00BR  675  0.0   0.0     K011L  675  0.2-  0.1-
K009N  568  0.0   0.2+    K00BR  675  0.2+  0.1-    K012I  950  0.5-  0.0
K009N  568  0.0   0.2+    K00CG  695  0.3+  0.0     K012I  950  0.3-  0.1+
K009O  568  0.2-  0.2+    K00CG  695  0.2-  0.1+    K018M  493  0.1-  0.4-
K009O  568  0.2-  0.2+    K00CG  695  0.0   0.3+    K018M  493  0.2-  0.1+
K009O  568  0.1-  0.2+    K00CH  695  0.2+  0.2+    K018M  493  0.4-  0.0
K009R  693  0.4+  0.3-    K00CI  695  0.1-  0.1-    K018M  493  0.1+  0.1+
K009R  693  0.6+  0.3-    K00CI  695  0.3-  0.3-    K019J  675  0.4+  0.0
K009R  693  0.3+  0.0     K00CI  695  0.1-  0.3-    K019J  675  0.4+  0.0
K00BR  675  0.4+  0.4-    K011L  675  0.3-  0.0

S/2000 S 6
Epoch 2001 Oct. 18.0 TT = JDT 2452200.5                 Marsden
M 191.01573              (2000.0)            P               Q
n   0.79645970     Peri.   70.72990     -0.58802797     +0.72065932
a   0.0759319      Node   150.96758     -0.63222997     -0.69271858
e   0.3592355      Incl.   49.17794     +0.50448822     -0.02812674
P   1.24           H   13.2           P/d   452.00
Residuals in seconds of arc
K009N  568  0.3+  0.4-    K00B3  695  0.1-  0.0     K011L  675  0.2+  0.1+
K009N  568  0.3+  0.2-    K00B4  309  0.4-  0.1+    K011L  675  0.2+  0.2+
K009N  568  0.3+  0.5-    K00B4  309  0.3-  0.1+    K011L  675  0.1-  0.1+
K009N  568  0.1+  0.6-    K00BO  809  0.2-  0.1+    K011L  675  0.1-  0.2-
K009O  568  0.4+  0.2-    K00BO  809  0.5-  0.2+    K018O  568  0.8+  0.4-
K009O  568  0.3+  0.3-    K00BO  809  0.4-  0.0     K018O  568  0.8+  0.4-
K009O  568  0.2+  0.3-    K00CG  695  0.0   0.6+    K018O  568  0.6+  0.2-
K00B2  695  0.2-  0.1+    K00CG  695  0.3-  0.8+    K019I  675  0.6-  1.0+
K00B2  695  0.1-  0.1+    K00CI  695  0.2+  0.3-    K019I  675  0.7-  0.9+
K00B2  695  0.1-  0.2+    K00CI  695  0.2+  0.4-    K019I  675  0.8-  0.8+
K00B3  695  0.2-  0.1+    K00CI  695  0.3+  0.6-    K019J  675  0.4+  0.0

S/2000 S 12
Epoch 2001 Oct. 18.0 TT = JDT 2452200.5                 Marsden
M 178.85338              (2000.0)            P               Q
n   0.36284556     Peri.   73.01438     -0.99601791     +0.00244640
a   0.1282485      Node   252.94389     -0.03545512     +0.90630659
e   0.1445464      Incl.  174.65113     +0.08180016     +0.42261374
P   2.72           H   14.3           P/d   992.16
Residuals in seconds of arc
K009N  568  0.2+  0.1-    K00B4  309  0.1+  0.1+    K018O  568  0.0   0.2-
K009N  568  0.1+  0.0     K00CI  695  0.3-  0.9+    K018O  568  0.1+  0.4-
K009N  568  0.1-  0.0     K00CI  695  0.0   0.3+    K019J  675  0.6-  0.4-
K009O  568  0.3-  0.0     K00CI  695  0.2-  0.0     K019J  675  0.1+  0.4+
K009O  568  0.2+  0.4-    K011N  675  0.4+  0.4-    K019J  675  0.4+  0.6+
K009O  568  0.1-  0.0     K011N  675  0.1+  0.1+
K00B4  309  0.0   0.0     K011N  675  0.0   0.6-

